Regional Weather Roundup
Issued by NWS

Home | Current Version | Previous Version | Graphics & Text | Print | Product List | Glossary On
Versions: 1 2 3 4 5 6 7 8 9 10 11 12 13 14 15 16 17 18 19 20 21 22 23 24 25 26 27 28 29 30 31 32 33 34 35 36 37 38 39 40 41 42 43 44 45 46 47 48 49 50
066
ASUS43 KBIS 201410
RWRND

NORTH DAKOTA REGIONAL WEATHER ROUNDUP
NATIONAL WEATHER SERVICE BISMARCK ND
900 AM CDT FRI OCT 20 2017

NOTE: "FAIR" INDICATES FEW OR NO CLOUDS BELOW 12,000 FEET WITH NO
SIGNIFICANT WEATHER AND/OR OBSTRUCTIONS TO VISIBILITY.


NDZ001>003-009>011-017-201500-
NORTHWEST NORTH DAKOTA

CITY           SKY/WX    TMP DP  RH WIND       PRES   REMARKS
WILLISTON      CLOUDY    35  30  82 CALM      29.38F
MINOT          CLOUDY    36  33  89 CALM      29.40F
MINOT AFB      CLOUDY    34  31  91 SE3       29.39F
$$

NDZ018>021-031>035-040>046-201500-
SOUTHWEST NORTH DAKOTA

CITY           SKY/WX    TMP DP  RH WIND       PRES   REMARKS
BISMARCK       PTCLDY    55  48  77 S9        29.47S
DICKINSON      PTCLDY    47  27  45 S6        29.41F
GARRISON         N/A     41  40  96 E5        29.42F
HETTINGER ARPT CLOUDY    49  27  42 CALM      29.47F
$$

NDZ004>008-012>016-024-026-027-054-201500-
NORTHEAST NORTH DAKOTA

CITY           SKY/WX    TMP DP  RH WIND       PRES   REMARKS
GRAND FORKS    PTCLDY    53  48  83 S14       29.56F
GRND FRKS AFB  CLEAR     50  47  89 S13       29.55F
DEVILS LAKE    CLEAR     48  45  89 SE10      29.50F
$$

NDZ022-023-025-028>030-036>039-047>053-201500-
SOUTHEAST NORTH DAKOTA

CITY           SKY/WX    TMP DP  RH WIND       PRES   REMARKS
FARGO          CLEAR     59  49  69 S17G29    29.60F
JAMESTOWN      CLEAR     52  46  80 S21       29.52F
$$





USA.gov is the U.S. government's official web portal to all federal, state and local government web resources and services.